SCP
0 -0 -0 0 0 0 0 0 0 0 0 0 0 0 0 0 0 0 0 0 0 0 0 0 0 0 0 0 0 0 0 0 0 0 0 0 0 0 1 0 0 0 0
-0 -0 -0 -0 0 0 0 0 0 0 0 0 0 0 0 0 0 0 0 0 0 0 0 0 0 0 0 0 0 0 0 0 0 0 0 0 0 0 0 0 0 0 0
0 0 -0 -0 0 0 0 0 0 0 0 0 0 0 0 0 0 0 0 0 0 0 0 0 0 0 0 0 0 0 0 0 0 0 0 0 0 0 0 0 0 0 0
0 0 0 -0 0 0 0 0 0 0 0 0 0 0 0 0 0 0 0 0 0 0 0 0 0 0 0 0 0 0 0 0 0 0 0 0 0 0 0 0 0 0 0
0 0 0 -0 0 0 0 0 0 0 0 0 0 0 0 0 0 0 0 0 0 0 0 0 0 0 0 0 0 0 0 0 0 0 0 0 0 0 0 0 0 0 0
0 0 -0 -0 -0 -0 -0 0 0 0 0 0 0 0 0 0 0 0 0 0 0 0 0 0 0 0 0 0 0 0 0 0 0 0 0 0 0 0 0 0 0 0 0
0 0 0 0 1 0 0 0 0 0 0 0 0 0 0 0 0 0 0 0 0 0 0 0 0 0 0 0 0 0 0 0 0 0 0 0 0 0 0 0 0 0 0
0 0 0 0 1 0 0 0 1 1 0 0 0 0 0 0 0 0 0 0 0 0 0 0 0 0 0 0 0 0 0 0 0 0 0 0 0 0 0 0 1 1 0
0 0 0 0 0 1 0 1 1 1 1 1 1 1 0 0 0 0 0 0 0 0 0 0 0 0 0 0 0 0 0 0 0 0 0 0 0 0 0 0 1 1 1
0 0 0 0 0 0 0 1 1 1 1 1 1 1 1 1 1 0 0 0 0 0 0 0 0 0 0 0 0 0 0 0 0 0 0 0 0 0 0 0 1 1 1
0 0 0 0 0 1 0 1 1 1 1 1 1 1 1 0 0 0 0 0 1 0 0 0 0 1 1 0 0 0 0 0 0 0 0 0 0 0 0 0 0 1 1
0 0 0 0 0 1 1 1 1 1 1 1 0 1 0 0 1 0 0 1 1 1 1 1 1 1 1 0 0 0 0 0 0 0 0 0 0 0 0 0 0 0 0
-0 0 0 0 0 1 1 1 1 3 2 2 1 2 1 1 1 1 1 1 1 1 1 1 1 1 0 0 0 0 0 0 0 0 0 0 0 0 0 0 0 0 0
0 0 0 0 0 1 1 1 1 2 2 2 2 2 2 2 1 1 1 1 1 1 1 1 1 1 1 1 0 0 0 0 0 0 0 0 0 0 0 0 0 0 0
0 0 0 0 1 1 2 1 1 1 1 1 1 1 2 1 2 1 1 1 1 1 1 1 1 2 1 1 1 0 0 0 0 0 0 0 0 0 0 0 0 0 0
0 0 0 0 1 1 1 2 3 2 1 1 1 1 2 1 2 1 1 1 1 1 1 1 1 2 1 1 1 0 0 0 0 0 0 0 0 0 0 0 0 0 0
0 0 0 0 0 1 2 2 2 1 1 1 1 1 1 1 1 1 1 1 1 1 1 1 1 1 1 1 1 1 1 1 0 0 0 0 0 0 0 0 0 0 0
0 0 0 0 0 1 2 2 1 1 1 1 1 0 0 1 1 1 0 1 1 1 1 1 1 1 1 1 1 1 1 1 0 0 0 0 0 0 0 0 0 0 0
0 0 0 0 0 0 1 1 1 1 1 1 1 0 0 0 0 0 0 1 1 1 1 1 1 1 1 1 1 1 1 1 1 0 0 0 0 0 0 0 0 0 0
0 0 0 0 0 0 0 1 1 1 1 1 1 1 0 0 0 0 0 1 1 1 1 1 1 1 1 1 1 1 1 0 0 0 0 0 0 0 0 0 0 0 0
0 0 0 0 0 0 0 0 1 1 1 1 1 1 1 0 0 1 1 1 1 0 1 1 1 1 1 1 0 0 0 0 0 0 0 0 0 0 0 0 0 0 0
0 0 0 0 0 0 0 1 1 1 1 1 1 1 1 0 1 1 1 0 0 0 1 1 1 1 1 0 0 0 0 0 0 0 0 0 0 0 0 0 0 0 0
0 0 0 0 0 0 0 1 2 1 0 1 1 1 0 0 1 1 0 0 0 1 1 1 1 1 0 0 0 0 0 0 0 0 0 0 0 0 0 0 0 0 0
0 0 0 0 0 0 0 1 1 1 1 1 0 1 1 1 1 1 0 0 1 1 1 1 0 0 0 0 0 0 0 0 0 0 0 0 0 0 0 0 0 0 0
0 0 0 0 0 0 0 1 1 1 1 1 1 1 1 1 1 1 0 1 1 0 0 0 0 0 0 0 0 0 0 0 0 0 0 0 0 0 0 0 0 0 0
0 0 0 0 0 0 0 1 0 1 0 1 1 1 1 1 1 1 0 0 0 0 0 0 0 0 0 0 0 0 0 0 0 0 0 0 0 0 0 0 0 0 0
Wind_Speed_500mb
49 40 41 37 30 25 25 24 25 26 25 23 21 19 18 17 17 15 12 9 6 3 4 7 9 12 14 15 16 19 22 23 22 19 17 14 10 10 7 7 10 14 15
40 44 44 39 33 27 26 26 27 28 28 26 23 20 18 17 17 17 14 11 9 6 2 2 5 7 9 12 14 15 17 18 21 24 26 19 17 14 14 13 11 15 16
36 42 45 42 35 28 27 25 26 27 29 28 26 23 20 17 15 15 15 11 9 8 6 4 2 2 4 5 7 8 10 12 16 20 24 28 23 22 20 18 15 15 16
32 41 44 43 37 29 27 26 27 28 27 27 25 24 22 19 17 14 14 14 10 8 6 6 5 4 4 5 6 7 8 8 11 15 17 22 27 27 25 23 21 19 19
35 38 41 40 36 33 31 30 31 30 28 29 28 26 22 20 17 14 12 10 11 9 7 6 4 4 6 6 6 5 5 6 8 9 13 17 21 28 29 27 24 22 23
37 37 39 38 36 35 35 35 34 34 32 33 32 29 26 23 20 16 13 11 9 8 6 4 3 5 7 7 8 8 8 8 7 8 12 14 16 22 30 31 27 25 24
39 36 38 42 39 39 41 39 38 38 38 37 36 33 32 28 24 20 17 14 9 7 6 5 4 5 8 11 11 13 14 14 12 12 13 13 13 17 27 33 31 29 26
38 34 37 43 51 46 46 45 44 43 43 44 41 38 38 35 31 26 22 17 12 8 6 4 4 6 8 12 15 20 23 22 18 17 18 17 16 16 22 28 32 31 29
33 36 36 41 48 52 52 53 51 49 49 48 48 46 44 40 37 32 29 23 17 12 9 7 6 8 8 11 15 19 22 24 22 20 22 24 21 20 21 23 27 32 28
33 38 40 41 45 53 58 60 57 58 56 55 55 53 50 48 45 40 35 29 24 19 13 12 11 11 10 12 14 16 19 22 22 23 25 28 28 26 26 25 31 33 30
38 39 38 41 44 51 58 63 61 66 64 64 63 61 59 59 56 50 44 35 29 24 19 17 16 16 12 12 12 14 18 19 21 21 21 27 33 30 31 30 32 35 34
37 43 43 41 48 54 60 65 69 73 74 76 74 73 70 70 65 58 49 42 35 29 24 22 21 20 17 15 15 13 14 17 19 18 18 21 29 35 34 36 34 36 36
44 52 52 48 53 60 62 66 73 79 81 83 83 82 78 78 72 65 58 50 44 37 32 28 27 27 22 21 19 18 16 13 10 11 11 14 20 32 37 38 37 35 33
40 42 43 46 43 42 53 65 75 83 87 88 90 89 87 85 82 74 68 59 50 45 39 34 33 31 27 26 22 22 19 18 16 14 15 16 18 20 30 40 39 39 34
36 39 37 31 42 50 55 64 72 82 89 93 93 94 92 92 91 82 74 62 58 52 47 43 39 35 31 29 27 24 25 23 23 23 20 19 18 21 22 34 40 38 37
45 43 38 42 50 57 56 57 59 67 80 90 94 92 93 95 95 87 75 69 60 55 50 47 40 33 33 34 32 29 28 28 29 29 27 27 26 26 19 22 32 35 36
50 44 47 51 64 54 53 50 53 58 66 76 84 86 90 90 91 88 76 74 64 57 56 49 38 38 38 38 35 32 33 32 32 33 31 29 25 27 26 22 28 33 38
50 52 52 68 62 59 55 50 50 56 61 72 71 77 83 81 77 72 72 75 66 58 57 48 40 37 39 39 36 35 35 36 35 35 36 29 25 25 27 30 28 34 35
58 59 69 68 61 59 53 50 51 55 60 65 62 65 74 68 61 49 58 63 60 58 54 45 38 36 36 38 36 36 36 38 37 39 39 33 30 29 25 29 27 32 31
74 78 60 55 50 52 49 50 50 53 58 60 58 64 63 54 44 40 45 52 51 52 48 40 31 30 32 32 37 41 42 40 43 43 37 31 27 30 26 30 24 28 29
71 65 58 49 44 48 51 50 52 52 56 53 55 60 43 38 35 36 41 41 39 47 41 34 28 26 29 33 39 43 42 40 38 37 33 34 32 32 31 30 27 27 26
66 60 58 49 48 50 53 49 48 46 49 51 52 39 33 31 30 34 32 30 34 38 40 31 25 27 33 35 35 33 20 17 25 29 31 28 33 32 30 29 30 25 27
63 54 51 52 52 56 52 40 40 43 42 43 46 35 31 32 30 27 24 28 30 33 30 27 31 32 34 33 32 20 10 10 5 17 29 29 32 31 30 31 33 30 24
75 69 66 62 56 58 48 38 38 42 39 36 27 29 30 32 30 28 29 31 28 27 27 28 32 32 32 27 25 27 30 20 8 6 14 32 37 33 25 27 34 37 26
58 57 59 54 55 49 39 39 37 34 32 27 27 32 36 34 34 31 34 30 26 30 25 24 30 32 27 23 21 23 27 26 16 9 12 15 30 33 27 26 31 36 34
39 35 35 41 41 33 34 31 28 25 27 32 36 39 37 36 29 33 34 33 30 27 24 28 29 25 22 18 19 24 22 25 28 22 9 9 17 31 27 28 31 29 29
Wind_Direction_500mb
196 200 193 189 180 176 173 163 159 159 159 158 153 151 150 153 144 127 130 134 138 178 252 253 243 248 256 257 254 254 254 252 251 247 251 243 244 235 220 193 173 167 173
185 194 194 192 186 182 180 172 167 167 164 164 159 156 157 160 154 140 128 118 117 117 125 263 260 250 250 258 261 257 253 255 252 247 244 240 239 233 219 217 196 190 185
185 195 194 195 189 188 188 183 177 176 173 171 169 169 169 168 160 154 143 130 129 132 135 144 173 229 231 232 256 268 266 256 253 248 245 243 233 232 225 212 207 198 200
176 195 194 192 191 194 196 197 191 188 183 182 182 180 180 178 171 167 161 149 142 141 144 154 163 191 228 252 252 256 265 267 259 252 246 244 238 230 228 225 220 208 204
179 193 196 195 193 202 204 208 203 199 199 197 192 192 193 190 184 178 168 158 155 158 164 168 179 215 231 247 265 254 263 260 260 257 253 245 240 234 226 227 217 224 216
190 197 202 204 201 208 212 216 211 209 212 208 204 203 205 203 199 192 185 181 172 168 170 184 218 243 247 248 245 244 250 254 256 254 251 250 243 236 227 227 229 226 228
196 197 200 211 214 216 216 221 222 217 221 218 214 213 214 213 212 208 203 201 195 182 183 203 234 265 273 269 264 263 253 245 241 249 242 245 247 240 229 227 227 233 231
203 207 208 215 220 223 226 228 229 226 228 225 224 223 225 223 222 218 216 215 214 218 214 223 260 287 286 279 272 265 263 262 252 241 234 245 249 246 237 230 228 234 231
209 217 221 224 226 229 233 235 232 236 233 232 231 232 232 232 231 227 225 223 224 233 247 257 275 284 288 292 284 269 265 263 251 246 240 240 251 244 241 229 218 227 222
212 224 228 233 237 238 240 238 238 239 238 239 238 237 238 238 236 233 231 230 230 236 246 261 279 279 289 312 304 286 276 270 262 254 252 244 246 238 235 227 221 218 214
228 234 237 242 247 249 249 247 246 244 243 244 242 239 240 239 237 234 235 236 235 237 247 257 263 260 271 290 297 295 292 279 270 263 256 252 241 234 232 228 223 220 217
248 248 246 248 253 253 254 258 252 251 246 244 242 241 238 241 240 239 239 237 238 240 246 251 254 254 261 273 287 294 291 288 272 267 261 251 240 231 232 231 227 227 226
275 265 262 264 267 263 263 265 261 255 254 250 246 245 242 243 242 238 237 234 236 238 244 250 253 253 253 260 270 281 290 292 280 270 263 257 254 242 238 239 232 229 230
274 275 266 263 275 275 272 276 267 261 259 255 253 248 245 244 243 240 238 238 240 242 246 251 251 251 253 256 259 268 277 277 269 269 265 266 261 259 248 243 237 233 234
259 289 263 268 279 280 281 277 274 270 261 258 255 253 250 247 246 241 242 241 244 242 248 249 252 251 252 254 254 261 268 270 265 263 260 256 260 266 258 240 237 236 236
270 270 279 281 294 292 282 284 282 271 267 263 259 258 256 250 250 246 244 243 247 248 248 249 251 252 254 252 253 260 269 268 264 261 260 258 258 259 260 241 231 233 234
272 269 281 292 297 289 299 288 277 270 265 264 263 261 257 255 252 252 245 244 248 248 245 246 253 254 256 255 258 265 268 271 264 262 263 264 257 252 248 246 236 231 230
272 279 284 296 296 297 299 289 276 264 260 261 263 259 259 259 258 256 248 244 245 243 242 245 249 251 256 258 262 268 269 271 263 259 258 262 256 251 248 243 248 234 232
276 281 289 289 292 296 294 282 276 264 259 261 261 256 256 259 261 257 247 244 241 239 239 242 241 252 260 261 266 268 272 270 265 260 257 253 254 252 250 235 238 226 227
279 281 279 279 289 292 289 274 270 262 255 256 255 250 255 260 262 246 240 234 233 231 230 229 236 250 259 264 264 271 271 272 268 265 252 242 247 243 245 235 221 218 210
278 273 266 271 286 296 299 276 263 253 253 253 246 249 254 254 245 235 224 227 221 220 220 216 233 246 263 267 267 274 278 274 265 256 239 230 241 236 240 233 224 213 209
277 273 268 270 290 295 294 274 255 249 252 247 243 247 245 238 228 216 208 213 201 201 199 214 235 254 259 264 264 271 279 270 257 241 229 230 222 226 232 226 215 210 191
276 272 273 281 284 285 293 260 240 242 246 241 239 234 227 217 202 201 170 183 186 190 202 224 241 257 265 272 264 244 243 251 205 229 230 224 213 222 222 215 205 202 204
274 276 277 278 276 280 279 244 238 241 243 249 239 218 203 195 190 177 171 175 179 190 213 236 246 259 269 262 257 251 232 243 234 171 205 212 210 220 224 212 209 201 207
270 267 263 262 266 269 249 230 232 233 233 225 203 190 186 179 169 175 177 181 184 203 222 256 257 268 262 246 252 252 230 223 217 181 157 173 210 217 214 205 197 203 214
270 263 251 247 253 252 223 214 213 210 206 190 181 177 170 167 177 175 183 197 213 223 240 253 264 256 252 246 248 239 228 224 227 215 173 161 193 199 201 195 197 197 198
Wind_Speed_850mb
49 40 41 37 30 25 25 24 25 26 25 23 21 19 18 17 17 15 12 9 6 3 4 7 9 12 14 15 16 19 22 23 22 19 17 14 10 10 7 7 10 14 15
40 44 44 39 33 27 26 26 27 28 28 26 23 20 18 17 17 17 14 11 9 6 2 2 5 7 9 12 14 15 17 18 21 24 26 19 17 14 14 13 11 15 16
36 42 45 42 35 28 27 25 26 27 29 28 26 23 20 17 15 15 15 11 9 8 6 4 2 2 4 5 7 8 10 12 16 20 24 28 23 22 20 18 15 15 16
32 41 44 43 37 29 27 26 27 28 27 27 25 24 22 19 17 14 14 14 10 8 6 6 5 4 4 5 6 7 8 8 11 15 17 22 27 27 25 23 21 19 19
35 38 41 40 36 33 31 30 31 30 28 29 28 26 22 20 17 14 12 10 11 9 7 6 4 4 6 6 6 5 5 6 8 9 13 17 21 28 29 27 24 22 23
37 37 39 38 36 35 35 35 34 34 32 33 32 29 26 23 20 16 13 11 9 8 6 4 3 5 7 7 8 8 8 8 7 8 12 14 16 22 30 31 27 25 24
39 36 38 42 39 39 41 39 38 38 38 37 36 33 32 28 24 20 17 14 9 7 6 5 4 5 8 11 11 13 14 14 12 12 13 13 13 17 27 33 31 29 26
38 34 37 43 51 46 46 45 44 43 43 44 41 38 38 35 31 26 22 17 12 8 6 4 4 6 8 12 15 20 23 22 18 17 18 17 16 16 22 28 32 31 29
33 36 36 41 48 52 52 53 51 49 49 48 48 46 44 40 37 32 29 23 17 12 9 7 6 8 8 11 15 19 22 24 22 20 22 24 21 20 21 23 27 32 28
33 38 40 41 45 53 58 60 57 58 56 55 55 53 50 48 45 40 35 29 24 19 13 12 11 11 10 12 14 16 19 22 22 23 25 28 28 26 26 25 31 33 30
38 39 38 41 44 51 58 63 61 66 64 64 63 61 59 59 56 50 44 35 29 24 19 17 16 16 12 12 12 14 18 19 21 21 21 27 33 30 31 30 32 35 34
37 43 43 41 48 54 60 65 69 73 74 76 74 73 70 70 65 58 49 42 35 29 24 22 21 20 17 15 15 13 14 17 19 18 18 21 29 35 34 36 34 36 36
44 52 52 48 53 60 62 66 73 79 81 83 83 82 78 78 72 65 58 50 44 37 32 28 27 27 22 21 19 18 16 13 10 11 11 14 20 32 37 38 37 35 33
40 42 43 46 43 42 53 65 75 83 87 88 90 89 87 85 82 74 68 59 50 45 39 34 33 31 27 26 22 22 19 18 16 14 15 16 18 20 30 40 39 39 34
36 39 37 31 42 50 55 64 72 82 89 93 93 94 92 92 91 82 74 62 58 52 47 43 39 35 31 29 27 24 25 23 23 23 20 19 18 21 22 34 40 38 37
45 43 38 42 50 57 56 57 59 67 80 90 94 92 93 95 95 87 75 69 60 55 50 47 40 33 33 34 32 29 28 28 29 29 27 27 26 26 19 22 32 35 36
50 44 47 51 64 54 53 50 53 58 66 76 84 86 90 90 91 88 76 74 64 57 56 49 38 38 38 38 35 32 33 32 32 33 31 29 25 27 26 22 28 33 38
50 52 52 68 62 59 55 50 50 56 61 72 71 77 83 81 77 72 72 75 66 58 57 48 40 37 39 39 36 35 35 36 35 35 36 29 25 25 27 30 28 34 35
58 59 69 68 61 59 53 50 51 55 60 65 62 65 74 68 61 49 58 63 60 58 54 45 38 36 36 38 36 36 36 38 37 39 39 33 30 29 25 29 27 32 31
74 78 60 55 50 52 49 50 50 53 58 60 58 64 63 54 44 40 45 52 51 52 48 40 31 30 32 32 37 41 42 40 43 43 37 31 27 30 26 30 24 28 29
71 65 58 49 44 48 51 50 52 52 56 53 55 60 43 38 35 36 41 41 39 47 41 34 28 26 29 33 39 43 42 40 38 37 33 34 32 32 31 30 27 27 26
66 60 58 49 48 50 53 49 48 46 49 51 52 39 33 31 30 34 32 30 34 38 40 31 25 27 33 35 35 33 20 17 25 29 31 28 33 32 30 29 30 25 27
63 54 51 52 52 56 52 40 40 43 42 43 46 35 31 32 30 27 24 28 30 33 30 27 31 32 34 33 32 20 10 10 5 17 29 29 32 31 30 31 33 30 24
75 69 66 62 56 58 48 38 38 42 39 36 27 29 30 32 30 28 29 31 28 27 27 28 32 32 32 27 25 27 30 20 8 6 14 32 37 33 25 27 34 37 26
58 57 59 54 55 49 39 39 37 34 32 27 27 32 36 34 34 31 34 30 26 30 25 24 30 32 27 23 21 23 27 26 16 9 12 15 30 33 27 26 31 36 34
39 35 35 41 41 33 34 31 28 25 27 32 36 39 37 36 29 33 34 33 30 27 24 28 29 25 22 18 19 24 22 25 28 22 9 9 17 31 27 28 31 29 29
Wind_Direction_850mb
196 200 193 189 180 176 173 163 159 159 159 158 153 151 150 153 144 127 130 134 138 178 252 253 243 248 256 257 254 254 254 252 251 247 251 243 244 235 220 193 173 167 173
185 194 194 192 186 182 180 172 167 167 164 164 159 156 157 160 154 140 128 118 117 117 125 263 260 250 250 258 261 257 253 255 252 247 244 240 239 233 219 217 196 190 185
185 195 194 195 189 188 188 183 177 176 173 171 169 169 169 168 160 154 143 130 129 132 135 144 173 229 231 232 256 268 266 256 253 248 245 243 233 232 225 212 207 198 200
176 195 194 192 191 194 196 197 191 188 183 182 182 180 180 178 171 167 161 149 142 141 144 154 163 191 228 252 252 256 265 267 259 252 246 244 238 230 228 225 220 208 204
179 193 196 195 193 202 204 208 203 199 199 197 192 192 193 190 184 178 168 158 155 158 164 168 179 215 231 247 265 254 263 260 260 257 253 245 240 234 226 227 217 224 216
190 197 202 204 201 208 212 216 211 209 212 208 204 203 205 203 199 192 185 181 172 168 170 184 218 243 247 248 245 244 250 254 256 254 251 250 243 236 227 227 229 226 228
196 197 200 211 214 216 216 221 222 217 221 218 214 213 214 213 212 208 203 201 195 182 183 203 234 265 273 269 264 263 253 245 241 249 242 245 247 240 229 227 227 233 231
203 207 208 215 220 223 226 228 229 226 228 225 224 223 225 223 222 218 216 215 214 218 214 223 260 287 286 279 272 265 263 262 252 241 234 245 249 246 237 230 228 234 231
209 217 221 224 226 229 233 235 232 236 233 232 231 232 232 232 231 227 225 223 224 233 247 257 275 284 288 292 284 269 265 263 251 246 240 240 251 244 241 229 218 227 222
212 224 228 233 237 238 240 238 238 239 238 239 238 237 238 238 236 233 231 230 230 236 246 261 279 279 289 312 304 286 276 270 262 254 252 244 246 238 235 227 221 218 214
228 234 237 242 247 249 249 247 246 244 243 244 242 239 240 239 237 234 235 236 235 237 247 257 263 260 271 290 297 295 292 279 270 263 256 252 241 234 232 228 223 220 217
248 248 246 248 253 253 254 258 252 251 246 244 242 241 238 241 240 239 239 237 238 240 246 251 254 254 261 273 287 294 291 288 272 267 261 251 240 231 232 231 227 227 226
275 265 262 264 267 263 263 265 261 255 254 250 246 245 242 243 242 238 237 234 236 238 244 250 253 253 253 260 270 281 290 292 280 270 263 257 254 242 238 239 232 229 230
274 275 266 263 275 275 272 276 267 261 259 255 253 248 245 244 243 240 238 238 240 242 246 251 251 251 253 256 259 268 277 277 269 269 265 266 261 259 248 243 237 233 234
259 289 263 268 279 280 281 277 274 270 261 258 255 253 250 247 246 241 242 241 244 242 248 249 252 251 252 254 254 261 268 270 265 263 260 256 260 266 258 240 237 236 236
270 270 279 281 294 292 282 284 282 271 267 263 259 258 256 250 250 246 244 243 247 248 248 249 251 252 254 252 253 260 269 268 264 261 260 258 258 259 260 241 231 233 234
272 269 281 292 297 289 299 288 277 270 265 264 263 261 257 255 252 252 245 244 248 248 245 246 253 254 256 255 258 265 268 271 264 262 263 264 257 252 248 246 236 231 230
272 279 284 296 296 297 299 289 276 264 260 261 263 259 259 259 258 256 248 244 245 243 242 245 249 251 256 258 262 268 269 271 263 259 258 262 256 251 248 243 248 234 232
276 281 289 289 292 296 294 282 276 264 259 261 261 256 256 259 261 257 247 244 241 239 239 242 241 252 260 261 266 268 272 270 265 260 257 253 254 252 250 235 238 226 227
279 281 279 279 289 292 289 274 270 262 255 256 255 250 255 260 262 246 240 234 233 231 230 229 236 250 259 264 264 271 271 272 268 265 252 242 247 243 245 235 221 218 210
278 273 266 271 286 296 299 276 263 253 253 253 246 249 254 254 245 235 224 227 221 220 220 216 233 246 263 267 267 274 278 274 265 256 239 230 241 236 240 233 224 213 209
277 273 268 270 290 295 294 274 255 249 252 247 243 247 245 238 228 216 208 213 201 201 199 214 235 254 259 264 264 271 279 270 257 241 229 230 222 226 232 226 215 210 191
276 272 273 281 284 285 293 260 240 242 246 241 239 234 227 217 202 201 170 183 186 190 202 224 241 257 265 272 264 244 243 251 205 229 230 224 213 222 222 215 205 202 204
274 276 277 278 276 280 279 244 238 241 243 249 239 218 203 195 190 177 171 175 179 190 213 236 246 259 269 262 257 251 232 243 234 171 205 212 210 220 224 212 209 201 207
270 267 263 262 266 269 249 230 232 233 233 225 203 190 186 179 169 175 177 181 184 203 222 256 257 268 262 246 252 252 230 223 217 181 157 173 210 217 214 205 197 203 214
270 263 251 247 253 252 223 214 213 210 206 190 181 177 170 167 177 175 183 197 213 223 240 253 264 256 252 246 248 239 228 224 227 215 173 161 193 199 201 195 197 197 198